Regional Weather Roundup
Issued by NWS

Home | Current Version | Previous Version | Graphics & Text | Print | Product List | Glossary On
Versions: 1 2 3 4 5 6 7 8 9 10 11 12 13 14 15 16 17 18 19 20 21 22 23 24 25 26 27 28 29 30 31 32 33 34 35 36 37 38 39 40 41 42 43 44 45 46 47 48 49 50
000
ASUS43 KFSD 192310
RWRSD

WEATHER ROUNDUP FOR SOUTH DAKOTA
NATIONAL WEATHER SERVICE SIOUX FALLS SD
600 PM CDT WED JUL 19 2017

NOTE: "FAIR" INDICATES FEW OR NO CLOUDS BELOW 12,000 FEET WITH NO
SIGNIFICANT WEATHER AND/OR OBSTRUCTIONS TO VISIBILITY.


SDZ001>005-009-010-012>017-200000-
NORTHWEST AND NORTH CENTRAL SOUTH DAKOTA

CITY           SKY/WX    TMP DP  RH WIND       PRES   REMARKS
BUFFALO          N/A     86  56  35 N8        29.96S
FAITH            N/A     89  63  41 VRB3      29.96S
MOBRIDGE       SUNNY     85  68  56 S3        29.90F
$$

SDZ012>016-024>037-041>051-057-063-072>074-200000-
SOUTHWEST AND SOUTH CENTRAL SOUTH DAKOTA

CITY           SKY/WX    TMP DP  RH WIND       PRES   REMARKS
RAPID CTY ARPT SUNNY     89  56  32 N23G30    29.99S
PIERRE         SUNNY     95  70  44 NE13      29.84S HX 101
CUSTER         CLOUDY    80  61  52 E20       30.15S
ELLSWORTH AFB  PTSUNNY   89  57  34 N23G30    29.99S
PHILIP         SUNNY     98  59  27 N17       29.87F HX  98
PINE RIDGE     SUNNY     94  65  38 NE15G25   29.95R HX  96
SPEARFISH      LGT RAIN  84  59  42 N12       30.07S
WINNER         FAIR      90  66  45 SE20      29.85R
$$

SDZ004>011-016>023-039-040-200000-
NORTHEAST SOUTH DAKOTA

CITY           SKY/WX    TMP DP  RH WIND       PRES   REMARKS
ABERDEEN       MOSUNNY   81  71  71 E6        29.88F
WATERTOWN      MOSUNNY   76  68  76 SE7       29.89F
BROOKINGS      SUNNY     82  71  69 SE8       29.91R
SISSETON         N/A     78  71  79 S10       29.87S
$$

SDZ017-020-022-023-036>040-048>070-200000-
SOUTHEAST SOUTH DAKOTA

CITY           SKY/WX    TMP DP  RH WIND       PRES   REMARKS
SIOUX FALLS    PTSUNNY   82  75  79 E12       29.89S
HURON          CLOUDY    87  75  67 SE10      29.84F HX  96
CHAMBERLAIN    CLOUDY    91  76  61 E15G22    29.84R HX 104
MITCHELL       CLOUDY    85  76  74 E9        29.85R
YANKTON        CLOUDY    92  76  59 S6        29.87R HX 104
$$

ABBREVIATIONS USED IN REMARKS
   TC - TEMPERATURE IN CELSIUS
  WCI - WIND CHILL INDEX
   HX - HEAT INDEX
  VSB - VISIBILITY





USA.gov is the U.S. government's official web portal to all federal, state and local government web resources and services.